Location: Guadanolo
(41.9167°N, 12.9333°E)
Time: 09:10:20
(UTC+00:00)

Cosmos 1980 - Pass Details

Date: 16 September 2019
Orbit: 841 x 846 km, 71.0° (Epoch: 14 October)

Event Time Altitude Azimuth Distance (km) Brightness Sun altitude
Rises 18:37:35 0° 342° (NNW) 3,406 7.4 -15.6°
Reaches altitude 10° 18:40:16 10° 352° (N) 2,467 6.5 -16.0°
Maximum altitude 18:45:25 35° 57° (ENE) 1,342 4.4 -16.9°
Enters shadow 18:47:20 27° 94° (E) 1,548 4.5 -17.3°
